Temp
48 52 52 50 49 49 47 45 42 43 45 48 51 51 55 54 53 55 55 57 55 52 51 49 49 49 50 50 50 50 51 50 50 51 52 51 50 49 50 50 50 50 50 50
42 52 51 48 48 51 50 50 48 48 46 52 55 56 54 55 55 56 55 53 53 52 49 48 48 47 48 47 48 49 49 49 50 50 50 49 49 48 48 48 48 49 49 49
36 47 48 41 46 48 48 51 49 42 48 51 50 54 53 55 58 55 52 51 49 47 46 45 45 45 44 44 46 47 46 49 49 48 48 47 48 47 46 46 47 47 47 51
36 41 31 47 56 54 49 50 51 51 53 51 49 50 54 57 53 51 50 48 46 46 43 43 43 44 44 45 44 44 44 45 47 46 46 46 45 45 45 45 46 46 49 52
32 34 41 49 53 51 48 46 53 51 49 49 49 48 44 50 50 46 45 45 44 45 44 42 42 43 43 42 41 42 42 43 44 44 44 43 44 48 46 45 49 47 48 48
34 32 32 46 57 60 57 39 54 51 48 49 53 39 38 48 48 47 48 47 46 45 42 40 40 41 39 38 39 39 41 41 42 45 46 46 48 48 50 50 50 52 49 47
32 34 41 52 57 62 42 38 52 53 52 49 42 45 45 46 46 48 48 46 44 41 39 38 39 39 37 37 37 43 40 40 43 45 44 47 47 48 50 49 45 47 44 46
34 34 32 55 54 47 45 48 51 49 46 44 44 45 46 46 45 45 43 43 43 40 38 38 38 37 35 35 38 45 39 39 42 43 44 46 46 46 46 46 45 41 42 42
39 40 46 51 49 51 51 49 50 48 49 48 46 46 47 44 44 44 43 43 42 40 38 37 37 37 34 35 38 39 37 37 40 43 44 46 44 39 38 41 40 40 42 38
44 46 47 49 51 52 52 50 51 52 50 50 46 46 44 44 43 42 42 41 40 40 38 36 37 39 36 38 39 38 36 38 42 41 41 43 44 43 40 39 38 40 39 37
43 47 49 50 51 51 51 52 51 51 50 47 45 44 43 42 41 41 40 39 39 38 37 37 38 38 38 39 38 36 36 40 41 41 41 40 42 42 42 42 39 39 39 38
40 47 47 48 51 52 50 49 49 47 45 46 45 42 42 40 41 40 38 38 37 37 37 38 39 38 38 39 38 36 36 36 36 38 40 41 40 41 41 41 40 39 39 38
45 50 50 51 51 51 47 47 47 46 45 42 43 42 42 39 39 42 39 38 37 37 38 38 38 37 38 39 39 38 37 39 37 39 39 39 39 39 39 42 41 40 39 39
54 52 46 49 45 48 48 48 48 47 45 44 43 42 41 39 39 38 37 37 37 37 38 38 38 37 40 41 41 39 40 41 39 38 39 38 36 35 35 37 38 39 40 38
51 53 49 49 49 48 49 48 45 44 44 42 43 41 40 37 36 37 38 38 37 36 37 38 38 38 41 41 39 40 40 40 39 40 40 40 38 34 34 34 33 36 38 39
53 52 50 48 48 48 47 46 44 43 43 42 41 40 40 39 38 37 37 37 33 32 35 36 37 39 42 39 39 41 40 39 39 39 37 37 37 35 34 33 34 33 35 34
49 48 48 47 47 47 46 47 46 45 43 42 41 41 40 39 37 36 35 36 36 35 35 35 36 42 42 39 38 39 37 37 37 37 35 35 35 33 33 33 33 32 33 33
55 55 53 51 49 48 48 48 47 46 43 44 43 42 39 37 34 35 35 35 36 34 34 36 37 39 39 38 38 37 36 36 35 34 33 33 32 31 30 31 31 30 31 33
55 53 50 52 52 50 48 46 45 45 45 44 42 39 39 37 36 35 35 35 33 31 30 35 38 36 35 37 37 36 35 33 33 32 33 32 30 29 28 28 29 29 29 30
55 53 51 50 51 49 47 47 46 44 44 43 42 40 37 37 37 35 33 31 32 29 33 34 33 33 34 35 37 34 33 32 31 30 32 30 29 27 28 29 29 28 28 28
52 51 50 50 49 49 47 47 45 43 43 43 40 38 37 36 37 35 31 29 32 35 35 36 33 31 31 32 33 32 30 29 28 28 33 29 26 28 29 28 28 29 29 28
51 50 49 48 47 45 44 44 45 44 42 42 41 39 37 35 35 34 35 31 32 36 35 33 32 32 32 34 32 31 31 30 29 27 27 28 25 25 27 27 28 29 29 28
49 48 48 47 44 43 45 45 44 44 42 41 40 38 35 34 34 32 30 35 35 35 33 33 32 33 33 32 31 31 30 28 24 24 22 21 21 22 24 26 27 27 27 28
47 47 46 46 46 44 40 40 41 41 41 41 41 40 37 34 34 34 35 36 37 35 34 31 33 33 33 31 31 29 28 27 23 21 21 24 18 20 19 22 23 24 25 26
47 47 45 42 41 39 39 40 39 39 40 39 39 40 39 38 36 35 35 34 35 35 34 32 33 32 32 31 30 29 28 27 22 20 21 20 18 19 19 17 20 23 24 24
45 43 43 43 42 40 39 39 37 37 38 37 38 39 38 38 37 36 36 36 35 35 33 32 32 31 31 30 30 29 27 27 26 24 20 19 19 19 19 18 20 20 23 23
44 42 42 41 40 42 40 39 37 37 39 40 38 38 38 37 37 36 36 35 34 33 32 32 31 31 30 29 28 28 27 26 26 25 24 20 19 20 21 21 20 21 23 24
MSLP
997.86 997.53 998.17 998.78 998.36 998.26 999.25 1000.71 1001.94 1003.56 1003.92 1004.30 1004.83 1005.77 1006.25 1006.47 1008.19 1009.01 1009.59 1010.27 1011.00 1011.98 1012.98 1013.74 1014.07 1014.45 1014.50 1014.72 1014.80 1014.85 1014.93 1015.04 1015.06 1014.86 1014.68 1014.57 1014.62 1014.73 1014.67 1014.62 1014.56 1014.37 1014.08 1013.62
998.47 997.86 998.15 999.14 998.66 998.76 999.62 1000.76 1001.77 1002.95 1003.80 1003.96 1004.41 1005.70 1006.52 1006.99 1008.06 1009.40 1010.41 1011.41 1012.02 1012.82 1013.68 1014.37 1014.89 1015.15 1015.33 1015.46 1015.59 1015.49 1015.52 1015.69 1015.64 1015.55 1015.38 1015.17 1014.89 1014.77 1014.66 1014.53 1014.21 1013.85 1013.41 1013.17
999.63 998.97 999.00 999.35 999.32 999.38 1000.17 1000.85 1001.82 1003.18 1003.79 1003.84 1005.50 1005.53 1006.18 1006.96 1008.34 1009.81 1011.33 1012.23 1012.96 1013.82 1014.59 1015.26 1015.61 1015.56 1015.90 1016.00 1016.10 1016.16 1016.20 1016.18 1016.04 1015.89 1015.76 1015.52 1015.16 1014.86 1014.65 1014.35 1013.88 1013.49 1013.15 1012.77
1000.21 999.92 999.91 999.51 998.88 999.50 1000.32 1001.63 1002.76 1003.42 1004.12 1005.58 1006.39 1006.87 1007.56 1007.89 1009.10 1010.90 1012.01 1013.36 1014.25 1014.80 1015.52 1015.84 1015.75 1015.94 1016.08 1016.28 1016.61 1016.69 1016.73 1016.58 1016.35 1016.18 1015.99 1015.68 1015.27 1014.84 1014.47 1014.07 1013.68 1013.25 1012.92 1012.60
1001.03 1000.58 1000.31 999.52 999.28 999.20 999.62 1002.40 1003.20 1004.24 1005.61 1006.00 1007.43 1008.12 1010.31 1010.53 1010.92 1011.87 1013.12 1014.27 1014.94 1015.28 1015.67 1016.05 1016.20 1016.44 1016.69 1017.05 1017.23 1017.32 1017.28 1017.07 1016.78 1016.50 1016.12 1015.70 1015.21 1014.70 1014.27 1013.91 1013.32 1012.92 1012.69 1012.44
1000.45 999.95 1000.06 999.50 998.79 998.48 999.23 1001.66 1002.69 1004.46 1005.73 1006.04 1006.79 1009.63 1012.21 1012.31 1012.64 1013.41 1013.93 1014.48 1015.10 1015.85 1016.01 1016.88 1017.33 1017.25 1017.54 1017.88 1017.95 1017.91 1017.63 1017.30 1016.90 1016.38 1015.98 1015.54 1015.04 1014.55 1014.00 1013.57 1013.10 1012.64 1012.45 1012.20
1000.38 1000.17 1000.19 999.54 999.13 998.72 1000.41 1002.99 1003.08 1004.62 1006.24 1006.81 1008.21 1009.47 1011.78 1012.70 1013.26 1013.66 1014.48 1015.19 1015.98 1016.48 1017.23 1017.64 1017.68 1017.85 1018.25 1018.33 1018.30 1018.02 1017.83 1017.43 1016.85 1016.39 1016.07 1015.44 1015.02 1014.49 1013.97 1013.43 1013.27 1013.08 1012.83 1012.34
1000.98 1001.30 1001.46 999.72 999.71 1000.53 1002.71 1003.32 1004.06 1005.84 1007.33 1008.54 1009.51 1011.29 1012.61 1013.35 1014.08 1014.73 1015.35 1016.08 1016.73 1017.18 1017.70 1017.90 1018.11 1018.35 1018.77 1018.75 1018.42 1017.99 1017.92 1017.54 1016.96 1016.54 1016.18 1015.61 1015.13 1014.82 1014.42 1014.06 1013.79 1013.48 1013.10 1012.77
1001.32 1001.94 1001.69 1000.70 1001.00 1002.38 1003.20 1004.01 1005.89 1006.98 1008.67 1008.88 1010.61 1012.10 1013.20 1014.21 1014.92 1015.34 1015.85 1016.53 1017.03 1017.45 1018.05 1018.41 1018.59 1018.69 1019.02 1018.81 1018.49 1018.18 1017.95 1017.46 1017.03 1016.61 1016.17 1015.69 1015.43 1015.20 1014.91 1014.63 1014.32 1013.93 1013.58 1013.42
1001.39 1003.58 1003.03 1002.78 1003.36 1003.95 1004.60 1005.63 1006.96 1007.68 1008.82 1009.77 1011.10 1012.72 1014.02 1014.85 1015.52 1015.93 1016.57 1017.12 1017.56 1018.00 1018.53 1018.98 1018.92 1018.85 1018.81 1018.57 1018.32 1018.20 1017.90 1017.57 1017.25 1016.80 1016.43 1016.09 1015.82 1015.58 1015.32 1015.18 1014.90 1014.59 1014.33 1013.94
1003.82 1004.12 1003.92 1005.05 1005.23 1005.87 1006.81 1007.50 1008.45 1009.54 1010.39 1011.52 1012.51 1013.87 1014.72 1015.56 1016.44 1017.01 1017.45 1017.79 1018.06 1018.48 1018.86 1019.16 1019.11 1019.02 1018.84 1018.63 1018.40 1018.16 1017.83 1017.65 1017.53 1017.17 1016.85 1016.54 1016.29 1016.05 1015.87 1015.72 1015.75 1015.36 1014.85 1014.50
1004.17 1004.55 1004.81 1006.50 1006.77 1007.16 1007.93 1009.04 1009.88 1010.68 1012.12 1013.11 1013.50 1014.90 1015.65 1016.61 1017.34 1017.74 1018.15 1018.44 1018.77 1019.00 1019.18 1019.35 1019.29 1019.18 1018.91 1018.56 1018.31 1018.01 1017.69 1017.54 1017.43 1017.28 1017.24 1017.02 1016.71 1016.36 1016.15 1016.08 1016.01 1015.67 1015.25 1014.93
1004.41 1005.26 1005.86 1006.98 1007.65 1008.25 1009.20 1010.35 1011.10 1011.86 1012.90 1014.06 1015.19 1015.61 1016.27 1017.13 1017.79 1018.23 1018.58 1018.91 1019.18 1019.45 1019.57 1019.58 1019.47 1019.27 1018.92 1018.47 1018.11 1017.90 1017.77 1017.52 1017.22 1017.26 1017.30 1017.26 1017.12 1016.92 1016.55 1016.07 1015.88 1015.53 1015.33 1014.94
1004.77 1005.41 1007.27 1007.88 1009.19 1009.62 1010.34 1011.45 1012.26 1013.06 1014.00 1014.72 1015.68 1016.49 1017.07 1017.76 1018.37 1018.81 1019.21 1019.54 1019.73 1019.83 1019.85 1019.84 1019.68 1019.43 1019.03 1018.60 1018.23 1018.06 1018.00 1017.68 1017.52 1017.50 1017.49 1017.32 1017.19 1017.02 1016.83 1016.48 1016.04 1015.70 1015.38 1015.05
1006.21 1006.68 1007.76 1009.03 1009.76 1010.65 1011.34 1012.24 1013.20 1014.06 1014.93 1015.84 1016.55 1017.16 1017.72 1018.41 1018.94 1019.44 1019.79 1020.08 1020.25 1020.26 1020.26 1020.17 1020.02 1019.71 1019.26 1018.92 1018.68 1018.58 1018.50 1018.38 1018.20 1018.06 1017.92 1017.80 1017.65 1017.46 1017.25 1016.97 1016.72 1016.36 1015.91 1015.32
1007.11 1007.88 1008.94 1009.55 1010.32 1011.37 1012.09 1013.00 1013.81 1014.80 1015.75 1016.50 1017.20 1017.94 1018.51 1019.03 1019.61 1020.04 1020.36 1020.61 1020.80 1020.91 1020.83 1020.62 1020.41 1020.06 1019.69 1019.34 1019.18 1019.09 1019.11 1019.02 1018.80 1018.74 1018.66 1018.48 1018.39 1018.28 1018.00 1017.72 1017.44 1017.10 1016.72 1016.46
1007.72 1009.05 1009.70 1010.24 1010.96 1011.86 1012.59 1013.44 1014.23 1015.21 1016.10 1016.87 1017.78 1018.39 1019.05 1019.68 1020.16 1020.65 1020.95 1021.11 1021.22 1021.24 1021.24 1021.10 1020.93 1020.44 1020.16 1019.94 1019.81 1019.84 1019.79 1019.76 1019.63 1019.45 1019.44 1019.39 1019.30 1019.24 1019.10 1018.76 1018.37 1018.08 1017.74 1017.33
1007.93 1008.75 1009.51 1010.21 1011.15 1012.12 1013.14 1013.87 1014.68 1015.55 1016.40 1017.25 1018.01 1018.80 1019.45 1019.98 1020.57 1021.08 1021.33 1021.45 1021.54 1021.59 1021.65 1021.52 1021.29 1021.03 1020.81 1020.64 1020.48 1020.50 1020.53 1020.49 1020.41 1020.47 1020.45 1020.34 1020.24 1020.20 1020.02 1019.69 1019.40 1019.01 1018.54 1017.97
1008.57 1009.35 1010.02 1010.78 1011.51 1012.43 1013.36 1014.32 1015.22 1016.02 1016.74 1017.50 1018.34 1019.14 1019.74 1020.38 1020.88 1021.33 1021.52 1021.77 1021.99 1022.19 1022.24 1021.89 1021.68 1021.49 1021.34 1021.20 1021.14 1021.20 1021.25 1021.24 1021.24 1021.20 1021.13 1021.13 1020.96 1020.86 1020.70 1020.52 1020.23 1019.81 1019.33 1018.81
1009.29 1009.97 1010.78 1011.60 1012.24 1012.99 1014.05 1014.95 1015.67 1016.48 1017.18 1017.79 1018.64 1019.48 1020.27 1020.90 1021.25 1021.62 1021.90 1022.24 1022.30 1022.35 1022.25 1022.10 1021.98 1021.94 1021.80 1021.70 1021.72 1021.77 1021.85 1021.84 1021.87 1021.76 1021.65 1021.63 1021.52 1021.50 1021.42 1021.22 1020.90 1020.45 1019.98 1019.56
1010.24 1010.87 1011.66 1012.40 1013.34 1014.05 1014.66 1015.37 1016.16 1016.98 1017.70 1018.25 1018.94 1019.80 1020.58 1021.22 1021.56 1021.86 1022.24 1022.47 1022.56 1022.37 1022.34 1022.22 1021.97 1022.10 1022.05 1022.14 1022.21 1022.20 1022.27 1022.34 1022.32 1022.25 1022.11 1022.19 1022.24 1022.19 1021.99 1021.65 1021.26 1020.91 1020.50 1020.08
1011.00 1011.80 1012.56 1013.30 1014.05 1014.90 1015.54 1016.03 1016.62 1017.41 1018.08 1018.72 1019.47 1020.20 1020.83 1021.52 1021.84 1022.11 1022.23 1022.48 1022.57 1022.43 1022.47 1022.33 1022.03 1021.95 1022.11 1022.42 1022.49 1022.50 1022.53 1022.63 1022.71 1022.76 1022.81 1022.89 1022.91 1022.76 1022.46 1022.02 1021.67 1021.25 1020.85 1020.44
1011.93 1012.59 1013.34 1014.06 1014.80 1015.59 1016.12 1016.63 1017.22 1017.79 1018.48 1019.07 1019.76 1020.41 1020.96 1021.48 1021.78 1022.18 1022.46 1022.55 1022.49 1022.53 1022.58 1022.47 1022.14 1022.12 1022.38 1022.69 1022.83 1022.93 1023.06 1023.21 1023.31 1023.39 1023.42 1023.33 1023.31 1023.26 1022.98 1022.66 1022.17 1021.73 1021.27 1020.75
1012.86 1013.54 1014.26 1014.93 1015.48 1016.22 1017.06 1017.61 1017.90 1018.34 1018.82 1019.33 1019.89 1020.42 1020.98 1021.66 1022.08 1022.19 1022.21 1022.44 1022.56 1022.73 1022.88 1022.88 1022.65 1022.65 1022.81 1023.12 1023.31 1023.48 1023.59 1023.72 1023.80 1023.81 1023.79 1023.75 1023.67 1023.49 1023.24 1022.97 1022.55 1022.09 1021.69 1021.24
1013.51 1014.25 1014.93 1015.59 1016.37 1017.15 1017.64 1018.12 1018.57 1018.96 1019.35 1019.83 1020.25 1020.70 1021.05 1021.31 1021.41 1022.00 1022.18 1022.54 1022.80 1023.00 1023.23 1023.24 1023.08 1023.09 1023.31 1023.49 1023.66 1023.81 1023.96 1024.06 1024.08 1024.07 1024.09 1024.05 1023.91 1023.71 1023.47 1023.22 1022.91 1022.53 1022.07 1021.52
1014.31 1015.01 1015.56 1016.01 1016.65 1017.36 1017.95 1018.37 1019.04 1019.44 1019.76 1020.30 1020.52 1020.74 1021.05 1021.26 1021.55 1021.86 1022.24 1022.45 1022.92 1023.31 1023.53 1023.55 1023.54 1023.65 1023.83 1024.00 1024.11 1024.20 1024.24 1024.25 1024.26 1024.28 1024.22 1024.16 1024.05 1023.82 1023.54 1023.24 1022.93 1022.57 1022.17 1021.66
1014.89 1015.33 1016.03 1016.70 1017.05 1017.41 1017.94 1018.53 1019.20 1019.58 1019.82 1020.15 1020.52 1020.84 1021.01 1021.28 1021.62 1021.98 1022.28 1022.58 1023.06 1023.45 1023.70 1023.75 1023.91 1024.06 1024.18 1024.32 1024.42 1024.47 1024.48 1024.43 1024.30 1024.31 1024.32 1024.23 1024.17 1023.95 1023.57 1023.17 1022.77 1022.42 1021.99 1021.53
Wind_Speed
6 11 12 1 3 3 6 9 8 10 10 16 14 15 18 18 16 4 8 12 13 13 11 8 9 8 9 8 8 6 6 7 8 8 7 7 7 6 5 4 2 4 5 6
6 12 21 4 6 9 9 10 12 10 3 5 7 14 11 15 15 14 15 12 13 13 12 11 9 8 8 7 7 6 7 7 7 7 7 7 6 6 5 5 5 5 6 6
4 6 10 2 3 9 12 8 13 6 4 13 4 17 19 19 17 17 15 12 12 12 11 8 7 7 7 6 6 7 7 7 8 7 7 6 6 5 5 6 6 7 6 7
5 6 6 3 7 13 17 11 5 6 10 13 7 13 9 10 20 17 16 13 10 10 9 6 6 7 6 7 9 8 7 7 7 8 8 7 6 6 6 5 6 5 7 7
5 5 4 4 7 10 8 5 6 6 16 21 19 21 16 13 14 16 14 10 10 9 9 7 8 7 8 8 7 7 7 8 8 7 7 7 6 7 7 6 7 5 5 7
3 6 5 4 5 13 10 3 3 21 19 22 16 10 4 11 14 14 13 11 11 9 11 9 6 7 8 7 6 6 7 7 7 8 7 8 8 8 8 7 7 6 6 6
3 6 3 1 7 8 7 7 9 19 16 11 7 9 13 11 12 12 11 11 8 8 7 6 6 7 6 4 4 4 5 6 8 7 8 7 7 7 7 7 5 6 6 7
4 6 1 4 3 9 6 7 17 15 16 22 22 18 14 12 11 10 9 8 8 8 6 6 6 7 5 4 5 4 5 5 7 7 6 7 7 7 8 8 8 6 7 7
4 4 4 11 21 15 17 20 18 22 17 23 20 17 14 11 10 10 9 9 7 7 7 5 5 6 4 3 4 5 5 6 6 7 7 7 6 5 5 6 6 7 7 7
7 10 15 19 18 17 18 20 17 18 18 18 20 16 15 12 11 11 10 9 6 7 7 5 4 4 2 2 4 5 4 5 7 7 8 7 5 4 5 7 7 7 6 7
15 14 21 16 17 18 19 19 19 16 16 18 19 16 15 12 11 10 8 6 6 6 7 5 4 5 4 5 5 5 4 3 3 3 6 6 5 4 5 6 6 6 6 6
6 6 17 12 15 19 20 18 18 21 18 16 19 15 14 11 9 9 8 6 7 7 7 5 6 5 6 6 5 5 5 4 2 2 2 3 4 4 2 3 4 7 9 8
9 12 18 17 17 20 20 18 18 19 18 17 12 14 14 11 9 13 9 8 8 7 6 5 5 6 6 6 6 6 4 5 3 2 3 3 3 3 4 4 2 6 11 12
20 23 16 15 14 19 20 19 20 17 15 15 14 11 13 11 11 10 9 7 7 6 6 6 6 6 6 7 7 7 6 10 6 4 4 3 3 3 3 3 6 8 10 11
12 13 19 17 18 18 18 17 17 15 14 13 11 11 11 10 9 8 7 7 6 6 7 6 6 6 7 7 7 7 6 6 6 6 7 6 6 5 5 5 4 6 7 12
19 19 17 19 18 16 17 16 16 14 13 12 11 10 10 10 9 8 7 6 5 6 5 6 6 6 8 7 7 7 7 14 10 7 7 7 8 8 8 6 8 7 8 11
20 15 16 16 17 15 16 14 14 13 12 12 11 11 10 9 8 8 7 6 6 6 5 5 5 7 8 7 6 5 5 6 10 8 8 8 7 8 8 8 8 8 8 9
13 13 12 16 15 15 14 14 14 13 11 12 11 10 9 8 7 7 6 5 6 6 6 6 6 7 8 7 6 5 6 6 7 7 7 8 8 7 7 7 8 8 8 9
11 11 9 13 14 15 15 14 12 12 12 13 11 10 9 8 8 6 6 6 6 5 5 5 10 8 7 8 6 5 6 7 6 6 6 9 7 8 7 7 7 8 8 8
13 17 17 17 18 17 15 12 14 12 10 10 10 10 9 7 7 7 6 5 3 2 2 4 5 6 5 6 7 4 5 5 5 4 5 6 7 7 6 9 8 7 8 8
18 18 18 17 15 13 13 13 13 12 10 11 11 9 8 7 6 6 7 4 3 2 3 5 5 4 3 4 4 4 4 4 4 4 6 5 4 5 6 6 6 7 7 7
16 16 15 15 13 11 9 9 11 11 10 9 10 10 10 7 6 5 4 4 0 5 3 3 4 3 6 8 4 4 4 5 4 4 5 5 4 4 5 5 6 7 7 6
14 14 14 13 13 11 11 10 10 10 8 8 9 8 7 5 5 6 4 1 3 5 3 4 6 8 8 5 4 5 5 4 3 4 3 2 3 3 4 6 6 6 8 8
14 13 12 11 11 11 10 6 8 8 7 7 8 8 9 5 2 1 4 5 6 6 4 4 7 8 7 4 4 4 5 4 3 2 2 4 2 3 3 4 5 5 6 8
13 11 10 10 10 7 9 8 8 7 8 7 7 7 6 4 5 5 4 4 6 4 5 5 8 8 5 4 5 5 4 4 2 2 2 2 2 3 3 4 4 5 6 7
11 7 7 10 9 7 6 5 5 4 5 5 3 6 4 4 4 4 3 5 5 6 4 3 5 5 5 5 5 5 4 4 4 3 2 2 2 3 3 3 4 3 5 6
7 7 6 5 4 6 5 5 5 5 4 5 5 4 5 5 5 5 6 5 6 5 4 4 5 5 5 5 4 4 3 3 3 3 3 2 3 3 4 5 4 4 5 6
Wind_Direction
138 156 162 7 49 41 128 158 151 177 161 186 176 169 161 152 151 156 87 119 114 108 101 93 80 73 60 49 39 30 29 17 2 360 11 33 44 62 44 23 329 277 277 289
67 145 157 155 49 75 99 103 83 120 105 80 168 157 155 162 155 155 146 124 108 97 90 80 73 69 61 46 27 27 25 31 26 14 10 14 20 18 359 330 304 308 302 296
105 136 123 55 144 84 91 82 136 147 196 65 164 156 159 163 154 129 122 113 101 93 88 85 82 72 58 50 33 44 33 23 17 7 360 348 340 339 337 324 314 301 310 306
132 126 140 113 130 109 99 88 53 108 120 97 99 68 76 120 127 122 113 108 100 100 95 85 71 60 55 47 40 31 21 7 3 359 344 337 329 327 325 309 302 306 304 313
164 123 130 100 158 153 135 165 150 108 123 120 112 86 54 74 98 106 109 112 112 106 95 78 60 51 55 47 35 18 9 351 348 335 324 320 314 320 309 296 301 298 292 307
178 96 87 261 172 135 112 12 51 142 149 142 153 107 137 110 106 108 108 105 103 102 78 67 55 59 60 40 24 1 354 336 327 324 329 319 313 314 307 302 291 308 309 310
61 86 26 113 347 161 81 207 129 138 153 124 102 103 131 120 106 106 113 114 102 96 111 113 85 75 60 38 18 341 333 326 336 337 324 311 318 310 327 327 327 344 328 327
68 80 118 357 32 133 150 82 109 101 109 107 109 115 122 120 119 123 125 116 119 115 108 96 89 85 66 29 329 337 336 329 342 338 328 324 327 4 350 352 359 336 337 354
80 81 358 68 102 99 106 107 113 118 126 118 117 122 123 117 106 100 100 106 104 104 105 100 105 104 94 297 331 340 348 340 360 349 342 348 10 8 356 2 353 346 10 350
73 51 82 87 83 92 100 102 104 102 110 108 111 110 109 105 96 88 89 95 97 95 103 106 105 96 136 309 344 4 360 356 15 8 356 356 3 9 18 17 360 343 3 346
92 95 80 69 88 104 99 100 98 93 100 106 107 104 105 98 95 95 92 87 81 82 89 98 73 55 20 357 349 335 336 334 353 3 5 357 1 6 26 26 17 10 2 353
129 104 107 106 98 97 95 100 103 104 96 93 102 107 106 101 104 103 97 86 77 76 85 71 60 33 1 350 349 340 331 319 270 318 333 326 343 341 8 30 25 25 10 4
126 110 105 103 96 94 96 96 96 98 102 104 97 103 98 102 96 92 80 76 71 74 73 58 50 14 354 348 353 357 333 314 328 253 307 327 336 329 344 15 16 23 12 11
114 107 92 105 111 102 99 99 96 96 95 97 100 93 97 99 92 85 79 76 68 58 47 39 25 9 353 353 2 10 3 19 25 21 337 330 324 335 332 350 15 17 17 12
93 95 113 114 107 104 106 105 99 99 101 96 97 100 97 97 94 92 86 80 68 59 47 30 15 357 358 1 18 23 31 30 27 29 25 24 21 9 18 14 4 6 10 15
111 114 116 116 115 115 113 108 108 108 109 109 104 104 105 102 103 98 91 87 77 60 36 26 15 344 12 15 28 38 42 32 36 34 27 29 30 23 19 19 18 15 22 19
118 125 126 124 128 131 126 125 122 122 122 117 119 114 113 114 107 102 92 80 72 64 39 32 6 17 28 25 39 45 43 41 32 40 32 30 31 27 21 24 20 18 14 23
112 132 133 136 139 132 130 126 123 124 123 127 120 116 114 113 117 117 115 99 62 46 32 24 27 27 31 26 43 50 47 41 42 40 34 32 31 27 23 19 18 14 7 6
127 129 116 128 130 126 124 122 119 119 117 123 125 121 116 110 108 106 97 83 73 58 351 29 36 32 26 29 60 64 56 52 47 42 42 38 34 29 23 15 16 9 6 5
105 103 103 109 114 121 118 115 116 116 117 112 117 118 114 113 115 106 94 89 98 175 66 40 32 36 32 41 66 73 72 69 58 29 41 43 39 25 19 14 13 10 6 4
116 113 111 110 112 112 113 122 122 120 115 111 109 119 127 124 119 116 91 83 356 83 80 31 11 41 68 90 85 90 85 62 48 39 42 51 30 24 18 2 2 4 1 357
117 114 112 112 112 110 107 110 115 120 122 119 116 114 112 112 120 108 116 130 152 73 61 3 346 25 115 116 101 84 82 76 57 42 34 52 30 14 6 355 0 359 351 351
112 113 111 110 112 112 106 108 115 125 130 131 130 131 131 142 140 134 125 241 74 68 50 9 12 62 98 98 89 73 73 97 72 54 46 41 16 13 3 1 350 359 350 350
112 109 110 111 110 107 100 94 98 104 107 108 123 138 141 132 89 140 141 143 110 85 58 18 38 45 91 104 94 82 72 81 79 66 60 54 16 355 350 350 346 344 348 343
120 119 116 111 106 112 117 117 104 102 102 100 117 145 135 166 141 184 160 154 162 102 45 20 50 46 68 88 96 88 84 81 86 73 50 55 9 356 341 339 332 334 337 337
122 123 128 133 139 140 139 132 135 142 127 122 113 134 148 160 155 150 151 156 145 116 98 64 60 58 71 71 76 75 70 63 70 61 60 37 5 341 319 310 319 313 327 322
113 113 114 109 128 140 145 141 141 162 151 153 148 167 160 162 144 125 123 111 131 129 126 96 82 78 88 88 83 77 67 51 62 64 26 353 337 319 318 312 304 305 316 313